Time,TemperatureF,DewpointF,PressureIn,WindDirection,WindDirectionDegrees,WindSpeedMPH,WindSpeedGustMPH,Humidity,HourlyPrecipIn,Conditions,Clouds,dailyrainin,SoftwareType,DateUTC
2013-06-13 00:01:00,58.0,53.0,29.90,NW,312,0.0,0.0,84,0.00,,,0.13,,2013-06-13 04:01:00,
2013-06-13 00:12:00,58.0,53.0,29.90,NW,312,0.0,0.0,84,0.00,,,0.13,,2013-06-13 04:12:00,
2013-06-13 00:22:00,58.0,53.0,29.88,NW,312,0.0,0.0,84,0.00,,,0.13,,2013-06-13 04:22:00,
2013-06-13 00:33:00,58.0,53.0,29.88,NW,312,0.0,0.0,84,0.00,,,0.13,,2013-06-13 04:33:00,
2013-06-13 00:43:00,57.0,53.0,29.88,NW,312,0.0,0.0,85,0.00,,,0.13,,2013-06-13 04:43:00,
2013-06-13 00:54:00,57.0,53.0,29.88,NW,312,0.0,0.0,85,0.00,,,0.13,,2013-06-13 04:54:00,
2013-06-13 01:02:00,57.0,53.0,29.88,NW,312,0.0,0.0,85,0.00,,,0.13,,2013-06-13 05:02:00,
2013-06-13 01:12:00,56.0,52.0,29.88,NW,312,0.0,0.0,88,0.00,,,0.13,,2013-06-13 05:12:00,
2013-06-13 01:24:00,56.0,52.0,29.88,NW,312,0.0,0.0,88,0.00,,,0.13,,2013-06-13 05:24:00,
2013-06-13 01:33:00,58.0,53.0,29.88,NW,313,0.0,0.0,84,0.00,,,0.13,,2013-06-13 05:33:00,
2013-06-13 01:43:00,58.0,53.0,29.88,NW,313,0.0,0.0,84,0.00,,,0.13,,2013-06-13 05:43:00,
2013-06-13 01:53:00,57.0,53.0,29.88,NW,312,0.0,0.0,86,0.00,,,0.13,,2013-06-13 05:53:00,
2013-06-13 02:02:00,55.0,52.0,29.89,NW,312,0.0,0.0,90,0.00,,,0.13,,2013-06-13 06:02:00,
2013-06-13 02:11:00,55.0,52.0,29.89,NW,312,0.0,0.0,90,0.00,,,0.13,,2013-06-13 06:11:00,
2013-06-13 02:22:00,55.0,52.0,29.89,NW,312,0.0,0.0,90,0.00,,,0.13,,2013-06-13 06:22:00,
2013-06-13 02:33:00,55.0,52.0,29.88,NW,312,0.0,0.0,91,0.00,,,0.13,,2013-06-13 06:33:00,
2013-06-13 02:44:00,54.0,51.0,29.88,NW,312,0.0,0.0,90,0.00,,,0.13,,2013-06-13 06:44:00,
2013-06-13 02:52:00,54.0,51.0,29.88,NW,312,0.0,0.0,90,0.00,,,0.13,,2013-06-13 06:52:00,
2013-06-13 03:02:00,54.0,51.0,29.88,NW,312,0.0,0.0,90,0.00,,,0.13,,2013-06-13 07:02:00,
2013-06-13 03:12:00,53.0,51.0,29.87,NW,312,0.0,0.0,93,0.00,,,0.13,,2013-06-13 07:12:00,
2013-06-13 03:22:00,53.0,51.0,29.87,NW,312,0.0,0.0,93,0.00,,,0.13,,2013-06-13 07:22:00,
2013-06-13 03:33:00,52.0,50.0,29.88,NW,313,0.0,0.0,94,0.01,,,0.14,,2013-06-13 07:33:00,
2013-06-13 03:42:00,52.0,50.0,29.88,NW,313,0.0,0.0,94,0.01,,,0.14,,2013-06-13 07:42:00,
2013-06-13 03:52:00,52.0,50.0,29.88,NW,313,0.0,0.0,94,0.01,,,0.14,,2013-06-13 07:52:00,
2013-06-13 04:01:00,52.0,50.0,29.87,NW,312,0.0,0.0,94,0.01,,,0.14,,2013-06-13 08:01:00,
2013-06-13 04:11:00,52.0,50.0,29.88,NW,312,0.0,0.0,94,0.01,,,0.14,,2013-06-13 08:11:00,
2013-06-13 04:22:00,51.0,49.0,29.87,NW,312,0.0,0.0,94,0.00,,,0.14,,2013-06-13 08:22:00,
2013-06-13 04:32:00,51.0,49.0,29.87,NW,312,0.0,0.0,94,0.00,,,0.14,,2013-06-13 08:32:00,
2013-06-13 04:43:00,51.0,49.0,29.87,NW,312,0.0,0.0,94,0.00,,,0.14,,2013-06-13 08:43:00,
2013-06-13 04:52:00,51.0,49.0,29.87,NW,312,0.0,0.0,94,0.00,,,0.14,,2013-06-13 08:52:00,
2013-06-13 05:02:00,51.0,50.0,29.88,NW,312,0.0,0.0,95,0.00,,,0.14,,2013-06-13 09:02:00,
2013-06-13 05:12:00,51.0,50.0,29.88,NW,312,0.0,0.0,95,0.00,,,0.14,,2013-06-13 09:12:00,
2013-06-13 05:22:00,51.0,50.0,29.88,NW,312,0.0,0.0,95,0.00,,,0.14,,2013-06-13 09:22:00,
2013-06-13 05:32:00,51.0,50.0,29.89,NW,312,0.0,0.0,95,0.00,,,0.14,,2013-06-13 09:32:00,
2013-06-13 05:42:00,51.0,50.0,29.89,NW,312,0.0,0.0,95,0.00,,,0.14,,2013-06-13 09:42:00,
2013-06-13 05:52:00,51.0,50.0,29.89,NW,312,0.0,0.0,95,0.00,,,0.14,,2013-06-13 09:52:00,
2013-06-13 06:01:00,51.0,50.0,29.89,NW,312,0.0,0.0,95,0.00,,,0.14,,2013-06-13 10:01:00,
2013-06-13 06:12:00,52.0,51.0,29.89,NW,312,0.0,0.0,96,0.00,,,0.14,,2013-06-13 10:12:00,
2013-06-13 06:22:00,52.0,51.0,29.89,NW,312,0.0,0.0,96,0.00,,,0.14,,2013-06-13 10:22:00,
2013-06-13 06:33:00,52.0,51.0,29.89,NW,312,0.0,0.0,96,0.00,,,0.14,,2013-06-13 10:33:00,
2013-06-13 06:43:00,54.0,53.0,29.88,NW,313,0.0,0.0,95,0.00,,,0.14,,2013-06-13 10:43:00,
2013-06-13 06:53:00,54.0,53.0,29.88,NW,313,0.0,0.0,95,0.00,,,0.14,,2013-06-13 10:53:00,
2013-06-13 07:02:00,55.0,53.0,29.87,NW,312,0.0,0.0,94,0.00,,,0.14,,2013-06-13 11:02:00,
2013-06-13 07:12:00,55.0,53.0,29.87,NW,312,0.0,0.0,94,0.00,,,0.14,,2013-06-13 11:12:00,
2013-06-13 07:24:00,55.0,53.0,29.87,NW,312,0.0,0.0,94,0.00,,,0.14,,2013-06-13 11:24:00,
2013-06-13 07:32:00,55.0,53.0,29.86,North,352,2.0,0.0,94,0.00,,,0.14,,2013-06-13 11:32:00,
2013-06-13 07:42:00,56.0,54.0,29.87,North,352,0.0,0.0,94,0.00,,,0.14,,2013-06-13 11:42:00,
2013-06-13 07:52:00,56.0,54.0,29.87,North,352,0.0,0.0,94,0.00,,,0.14,,2013-06-13 11:52:00,
2013-06-13 08:02:00,56.0,54.0,29.87,North,352,0.0,0.0,94,0.00,,,0.14,,2013-06-13 12:02:00,
2013-06-13 08:12:00,56.0,54.0,29.87,North,352,0.0,0.0,94,0.00,,,0.14,,2013-06-13 12:12:00,
2013-06-13 08:22:00,57.0,55.0,29.87,North,352,0.0,0.0,93,0.00,,,0.14,,2013-06-13 12:22:00,
2013-06-13 08:35:00,57.0,54.0,29.87,North,352,0.0,0.0,91,0.00,,,0.14,,2013-06-13 12:35:00,
2013-06-13 08:43:00,57.0,54.0,29.86,North,352,0.0,0.0,90,0.00,,,0.14,,2013-06-13 12:43:00,
2013-06-13 08:52:00,57.0,54.0,29.86,North,352,0.0,0.0,90,0.00,,,0.14,,2013-06-13 12:52:00,
2013-06-13 09:02:00,57.0,54.0,29.86,North,352,0.0,0.0,90,0.00,,,0.14,,2013-06-13 13:02:00,
2013-06-13 09:11:00,58.0,55.0,29.85,North,352,0.0,0.0,91,0.00,,,0.14,,2013-06-13 13:11:00,
2013-06-13 09:22:00,58.0,55.0,29.85,North,352,0.0,0.0,91,0.00,,,0.14,,2013-06-13 13:22:00,
2013-06-13 09:33:00,59.0,57.0,29.86,North,352,0.0,0.0,92,0.01,,,0.15,,2013-06-13 13:33:00,
2013-06-13 09:43:00,60.0,57.0,29.86,North,352,0.0,0.0,90,0.01,,,0.15,,2013-06-13 13:43:00,
2013-06-13 09:53:00,60.0,56.0,29.86,North,352,0.0,0.0,86,0.01,,,0.15,,2013-06-13 13:53:00,
2013-06-13 10:02:00,61.0,57.0,29.85,North,352,0.0,0.0,86,0.01,,,0.15,,2013-06-13 14:02:00,
2013-06-13 10:11:00,62.0,57.0,29.85,SE,131,0.0,0.0,83,0.01,,,0.15,,2013-06-13 14:11:00,
2013-06-13 10:22:00,62.0,57.0,29.85,SE,131,0.0,0.0,83,0.01,,,0.15,,2013-06-13 14:22:00,
2013-06-13 10:33:00,62.0,56.0,29.84,SE,128,2.0,0.0,82,0.00,,,0.15,,2013-06-13 14:33:00,
2013-06-13 10:43:00,62.0,55.0,29.84,SE,144,0.0,0.0,79,0.00,,,0.15,,2013-06-13 14:43:00,
2013-06-13 10:53:00,62.0,56.0,29.85,ENE,76,0.0,0.0,80,0.00,,,0.15,,2013-06-13 14:53:00,
2013-06-13 11:02:00,62.0,56.0,29.85,ENE,76,0.0,0.0,80,0.00,,,0.15,,2013-06-13 15:02:00,
2013-06-13 11:12:00,61.0,55.0,29.85,ESE,113,0.0,0.0,82,0.00,,,0.15,,2013-06-13 15:12:00,
2013-06-13 11:22:00,61.0,55.0,29.85,ESE,113,0.0,0.0,82,0.00,,,0.15,,2013-06-13 15:22:00,
2013-06-13 11:33:00,61.0,56.0,29.83,ENE,78,0.0,0.0,84,0.00,,,0.15,,2013-06-13 15:33:00,
2013-06-13 11:43:00,61.0,56.0,29.83,ENE,78,0.0,0.0,84,0.00,,,0.15,,2013-06-13 15:43:00,
2013-06-13 11:53:00,62.0,57.0,29.83,ENE,69,0.0,0.0,83,0.00,,,0.15,,2013-06-13 15:53:00,
2013-06-13 12:02:00,62.0,57.0,29.83,ENE,69,0.0,0.0,83,0.00,,,0.15,,2013-06-13 16:02:00,
2013-06-13 12:12:00,61.0,57.0,29.83,East,85,0.0,0.0,86,0.00,,,0.15,,2013-06-13 16:12:00,
2013-06-13 12:22:00,61.0,57.0,29.84,East,87,0.0,0.0,88,0.00,,,0.15,,2013-06-13 16:22:00,
2013-06-13 12:33:00,61.0,57.0,29.84,East,87,0.0,0.0,88,0.00,,,0.15,,2013-06-13 16:33:00,
2013-06-13 12:43:00,61.0,58.0,29.84,East,89,0.0,0.0,89,0.00,,,0.15,,2013-06-13 16:43:00,
2013-06-13 12:53:00,61.0,58.0,29.84,East,89,0.0,0.0,89,0.00,,,0.15,,2013-06-13 16:53:00,
2013-06-13 13:02:00,61.0,58.0,29.85,South,169,0.0,0.0,91,0.00,,,0.15,,2013-06-13 17:02:00,
2013-06-13 13:12:00,60.0,58.0,29.83,SSE,147,0.0,0.0,92,0.00,,,0.15,,2013-06-13 17:12:00,
2013-06-13 13:24:00,59.0,57.0,29.80,East,82,0.0,0.0,92,0.00,,,0.15,,2013-06-13 17:24:00,
2013-06-13 13:33:00,59.0,57.0,29.80,ENE,73,0.0,6.0,93,0.00,,,0.15,,2013-06-13 17:33:00,
2013-06-13 13:43:00,59.0,57.0,29.78,East,81,0.0,6.0,93,0.00,,,0.15,,2013-06-13 17:43:00,
2013-06-13 13:53:00,59.0,57.0,29.78,East,81,0.0,6.0,93,0.00,,,0.15,,2013-06-13 17:53:00,
2013-06-13 14:02:00,59.0,57.0,29.78,ENE,72,0.0,6.0,93,0.00,,,0.15,,2013-06-13 18:02:00,
2013-06-13 14:11:00,59.0,57.0,29.83,East,92,0.0,6.0,93,0.00,,,0.15,,2013-06-13 18:11:00,
2013-06-13 14:22:00,59.0,57.0,29.83,East,92,0.0,6.0,93,0.00,,,0.15,,2013-06-13 18:22:00,
2013-06-13 14:33:00,59.0,57.0,29.77,ENE,66,7.0,14.0,94,0.01,,,0.16,,2013-06-13 18:33:00,
2013-06-13 14:43:00,59.0,57.0,29.78,ENE,69,0.0,14.0,92,0.01,,,0.16,,2013-06-13 18:43:00,
2013-06-13 14:52:00,59.0,56.0,29.78,ENE,68,5.0,14.0,91,0.01,,,0.16,,2013-06-13 18:52:00,
2013-06-13 15:02:00,59.0,56.0,29.78,ENE,68,5.0,14.0,91,0.01,,,0.16,,2013-06-13 19:02:00,
2013-06-13 15:11:00,59.0,56.0,29.78,East,81,0.0,14.0,90,0.01,,,0.16,,2013-06-13 19:11:00,
2013-06-13 15:22:00,59.0,56.0,29.78,East,81,0.0,14.0,90,0.01,,,0.16,,2013-06-13 19:22:00,
2013-06-13 15:33:00,59.0,56.0,29.77,ESE,107,0.0,0.0,90,0.00,,,0.16,,2013-06-13 19:33:00,
2013-06-13 15:43:00,60.0,56.0,29.76,NE,45,3.0,0.0,87,0.00,,,0.16,,2013-06-13 19:43:00,
2013-06-13 15:53:00,60.0,56.0,29.77,East,84,0.0,0.0,86,0.00,,,0.16,,2013-06-13 19:53:00,
2013-06-13 16:02:00,60.0,56.0,29.77,East,84,0.0,0.0,86,0.00,,,0.16,,2013-06-13 20:02:00,
2013-06-13 16:11:00,60.0,56.0,29.77,East,84,0.0,0.0,86,0.00,,,0.16,,2013-06-13 20:11:00,
2013-06-13 16:22:00,59.0,55.0,29.76,East,85,8.0,0.0,86,0.00,,,0.16,,2013-06-13 20:22:00,
2013-06-13 16:33:00,59.0,55.0,29.76,East,85,8.0,0.0,86,0.00,,,0.16,,2013-06-13 20:33:00,
2013-06-13 16:44:00,59.0,55.0,29.75,East,82,3.0,10.0,87,0.00,,,0.16,,2013-06-13 20:44:00,
2013-06-13 16:53:00,58.0,55.0,29.74,NE,56,1.0,10.0,90,0.00,,,0.16,,2013-06-13 20:53:00,
2013-06-13 17:02:00,58.0,55.0,29.74,NE,56,1.0,10.0,90,0.00,,,0.16,,2013-06-13 21:02:00,
2013-06-13 17:11:00,58.0,55.0,29.74,NE,56,1.0,10.0,90,0.00,,,0.16,,2013-06-13 21:11:00,
2013-06-13 17:22:00,58.0,55.0,29.73,East,81,0.0,10.0,91,0.00,,,0.16,,2013-06-13 21:22:00,
2013-06-13 17:34:00,58.0,55.0,29.73,East,81,0.0,10.0,91,0.00,,,0.16,,2013-06-13 21:34:00,
2013-06-13 17:43:00,58.0,55.0,29.72,NE,52,0.0,6.0,90,0.00,,,0.16,,2013-06-13 21:43:00,
2013-06-13 17:52:00,58.0,55.0,29.71,East,79,0.0,6.0,90,0.00,,,0.16,,2013-06-13 21:52:00,
2013-06-13 18:02:00,58.0,55.0,29.71,East,79,0.0,6.0,90,0.00,,,0.16,,2013-06-13 22:02:00,
2013-06-13 18:11:00,58.0,55.0,29.70,East,98,7.0,7.0,91,0.00,,,0.16,,2013-06-13 22:11:00,
2013-06-13 18:22:00,58.0,55.0,29.70,East,98,7.0,7.0,91,0.00,,,0.16,,2013-06-13 22:22:00,
2013-06-13 18:33:00,57.0,54.0,29.70,ENE,68,0.0,4.0,90,0.00,,,0.16,,2013-06-13 22:33:00,
2013-06-13 18:43:00,57.0,54.0,29.70,ENE,61,7.0,7.0,89,0.00,,,0.16,,2013-06-13 22:43:00,
2013-06-13 18:52:00,57.0,54.0,29.69,East,91,0.0,4.0,89,0.00,,,0.16,,2013-06-13 22:52:00,
2013-06-13 19:02:00,57.0,54.0,29.69,East,91,0.0,4.0,89,0.00,,,0.16,,2013-06-13 23:02:00,
2013-06-13 19:11:00,57.0,54.0,29.69,East,91,0.0,4.0,89,0.00,,,0.16,,2013-06-13 23:11:00,
2013-06-13 19:22:00,57.0,54.0,29.69,East,91,0.0,4.0,89,0.00,,,0.16,,2013-06-13 23:22:00,
2013-06-13 19:32:00,57.0,54.0,29.69,East,81,0.0,4.0,89,0.00,,,0.16,,2013-06-13 23:32:00,
2013-06-13 19:43:00,58.0,54.0,29.69,ENE,76,5.0,11.0,88,0.00,,,0.16,,2013-06-13 23:43:00,
2013-06-13 19:52:00,57.0,53.0,29.67,East,100,2.0,11.0,88,0.00,,,0.16,,2013-06-13 23:52:00,
2013-06-13 20:01:00,57.0,53.0,29.67,East,100,2.0,11.0,88,0.00,,,0.16,,2013-06-14 00:01:00,
2013-06-13 20:12:00,58.0,54.0,29.68,ENE,61,0.0,11.0,88,0.00,,,0.16,,2013-06-14 00:12:00,
2013-06-13 20:22:00,58.0,54.0,29.68,ENE,61,0.0,11.0,88,0.00,,,0.16,,2013-06-14 00:22:00,
2013-06-13 20:34:00,57.0,53.0,29.68,NE,35,0.0,11.0,87,0.01,,,0.17,,2013-06-14 00:34:00,
2013-06-13 20:43:00,57.0,53.0,29.69,ENE,64,0.0,11.0,88,0.01,,,0.17,,2013-06-14 00:43:00,
2013-06-13 20:53:00,57.0,53.0,29.69,ENE,64,0.0,11.0,88,0.01,,,0.17,,2013-06-14 00:53:00,
2013-06-13 21:01:00,57.0,54.0,29.68,NE,34,6.0,11.0,89,0.01,,,0.17,,2013-06-14 01:01:00,
2013-06-13 21:11:00,56.0,53.0,29.69,NE,54,3.0,11.0,91,0.01,,,0.17,,2013-06-14 01:11:00,
2013-06-13 21:22:00,56.0,54.0,29.68,NE,45,5.0,11.0,92,0.01,,,0.17,,2013-06-14 01:22:00,
2013-06-13 21:33:00,56.0,54.0,29.68,NE,45,5.0,11.0,92,0.01,,,0.17,,2013-06-14 01:33:00,
2013-06-13 21:43:00,55.0,53.0,29.67,ENE,62,4.0,10.0,93,0.00,,,0.17,,2013-06-14 01:43:00,
2013-06-13 21:53:00,55.0,53.0,29.67,ENE,62,4.0,10.0,93,0.00,,,0.17,,2013-06-14 01:53:00,
2013-06-13 22:02:00,55.0,53.0,29.67,NE,54,3.0,10.0,92,0.00,,,0.17,,2013-06-14 02:02:00,
2013-06-13 22:11:00,55.0,53.0,29.66,ENE,57,0.0,10.0,94,0.00,,,0.17,,2013-06-14 02:11:00,
2013-06-13 22:22:00,55.0,54.0,29.65,NE,45,6.0,11.0,95,0.00,,,0.17,,2013-06-14 02:22:00,
2013-06-13 22:33:00,55.0,54.0,29.65,NE,45,6.0,11.0,95,0.00,,,0.17,,2013-06-14 02:33:00,
2013-06-13 22:43:00,55.0,54.0,29.65,ENE,58,5.0,11.0,95,0.00,,,0.17,,2013-06-14 02:43:00,
2013-06-13 22:52:00,55.0,54.0,29.64,NE,56,7.0,11.0,96,0.00,,,0.17,,2013-06-14 02:52:00,
2013-06-13 23:02:00,55.0,54.0,29.64,NE,56,7.0,11.0,96,0.00,,,0.17,,2013-06-14 03:02:00,
2013-06-13 23:12:00,55.0,54.0,29.62,NE,39,9.0,11.0,96,0.00,,,0.17,,2013-06-14 03:12:00,
2013-06-13 23:22:00,55.0,54.0,29.62,NE,39,9.0,11.0,96,0.00,,,0.17,,2013-06-14 03:22:00,
2013-06-13 23:34:00,55.0,54.0,29.62,NE,49,0.0,11.0,96,0.00,,,0.04,,2013-06-14 03:34:00,
2013-06-13 23:43:00,54.0,53.0,29.60,NE,49,7.0,11.0,96,0.00,,,0.04,,2013-06-14 03:43:00,
2013-06-13 23:53:00,54.0,53.0,29.60,ENE,75,10.0,11.0,96,0.00,,,0.04,,2013-06-14 03:53:00,